Tracking 27126 objects as of 31-Mar-2023
HD Live streaming from Space Station
objects crossing your sky now

PEGASUS R/B

Track PEGASUS R/B now!
10-day predictions


NORAD ID: 25506
Int'l Code: 1998-060B
Perigee: 727.9 km
Apogee: 760.4 km
Inclination: 25.0 °
Period: 99.5 minutes
Semi major axis: 7115 km
RCS: 1.6048 m2 (large)
Launch date: October 23, 1998
Source: United States (US)
Launch site: Pegasus launched from Eastern Range Air Space (ERAS)

Note: This is a ROCKET BODY
Your satellite tracking list
Your tracking list is empty




NASA's NSSDC Master Catalog

Two Line Element Set (TLE):
1 25506U 98060B   23089.04454534  .00000955  00000-0  21039-3 0  9999
2 25506  24.9971 303.7549 0022867 237.1502 285.3593 14.46522324292245
Source of the keplerian elements: AFSPC